Location: Heilwood
(40.6210°N, 78.9150°W)
Time: 17:09:37
(UTC-04:00)

BREEZE-M DEB (TANK) - Visible Passes

Search period start: 25 October 2014 00:00
Search period end: 03 November 2014 23:00
Orbit: 282 x 16043 km, 49.5° (Epoch: 24 October)

Date Brightness Start Highest point End Pass type
(mag) Time Alt. Az. Time Alt. Az. Time Alt. Az.
25 Oct 8.7 00:50:54 10° NW 02:36:12 32° W 02:55:27 30° W visible
25 Oct 8.3 19:12:14 10° W 21:23:32 84° NE 22:19:02 54° ESE visible
26 Oct 8.8 01:11:33 10° NW 02:46:52 27° WNW 03:09:58 25° W visible
26 Oct 8.3 19:28:41 10° W 21:45:58 87° NE 22:33:35 57° SE visible
27 Oct 8.9 01:33:02 10° NW 02:57:06 23° WNW 03:24:31 21° W visible
27 Oct 8.2 19:45:15 10° WNW 22:06:29 89° SW 22:48:11 60° SE visible
28 Oct 8.9 01:55:51 10° NW 03:07:00 19° WNW 03:39:08 16° W visible
28 Oct 8.2 20:01:55 10° WNW 22:25:28 85° SW 23:02:50 61° SSE visible
29 Oct 9.0 02:21:01 10° NW 03:16:37 16° WNW 03:53:48 12° W visible
29 Oct 8.2 20:18:42 10° WNW 22:43:12 81° WSW 23:17:32 61° S visible
30 Oct 9.0 02:51:50 10° NW 03:25:59 12° WNW 03:55:52 10° WNW visible
30 Oct 8.8 15:14:14 10° SW 15:49:00 88° SE 18:34:48 10° E visible
30 Oct 8.2 20:35:35 10° WNW 22:59:49 76° WSW 23:32:18 60° S visible
31 Oct 8.8 15:28:53 10° SW 16:06:36 88° NW 18:53:10 10° E visible
31 Oct 8.2 20:52:33 10° WNW 23:15:29 71° WSW 23:47:08 58° SSW visible
01 Nov 8.7 15:43:37 10° WSW 16:25:01 84° NNW 19:11:03 10° E visible
01 Nov 8.3 21:09:37 10° WNW 23:30:16 66° WSW 00:02:01 54° SSW visible
02 Nov 8.7 14:58:26 10° WSW 15:44:26 82° NNW 18:26:04 12° E visible
02 Nov 8.3 20:26:46 10° WNW 22:44:15 61° WSW 23:16:58 50° SSW visible
03 Nov 8.6 15:13:19 10° WSW 16:05:06 79° NNW 18:41:04 15° E visible
03 Nov 9.1 20:44:02 10° NW 22:57:29 56° W 23:00:00 56° W visible
